Ketchikan, AK

8:22 AM AKDT on October 16, 2018 (GMT -0800)
Ketchikan International

Weather History for PAKT - October, 2018

Change the Weather History Date:

Friday, October 5, 2018

  Actual Average Record
Temperature  
Mean Temperature 49 °F -  
Max Temperature 55 °F 54 °F 68 °F (1964)
Min Temperature 43 °F 43 °F 31 °F (1954)
Degree Days  
Heating Degree Days 16    
Moisture  
Dew Point 41 °F    
Average Humidity 77    
Maximum Humidity 93    
Minimum Humidity 54    
Precipitation  
Precipitation 0.16 in - - ()
Sea Level Pressure  
Sea Level Pressure 30.04 in    
Wind  
Wind Speed 5 mph (SE)    
Max Wind Speed 12 mph    
Max Gust Speed -    
Visibility 10 miles    
Events Rain    
Averages and records for this station are not official NWS values.
T = Trace of Precipitation, MM = Missing Value Source: NWS Daily Summary

Daily Weather History Graph

Daily Weather History Graph

Search for Another Location

Airport or City:

Astronomy

Oct. 05, 2018 Rise Set
Actual Time 6:57 AM AKDT 6:11 PM AKDT
Civil Twilight 6:21 AM AKDT 6:48 PM AKDT
Nautical Twilight 5:38 AM AKDT 7:30 PM AKDT
Astronomical Twilight 4:55 AM AKDT 8:13 PM AKDT
Moon 1:54 AM AKDT (10/5) 5:23 PM AKDT (10/5)
Length of Visible Light 12h 26m
Length of Day
11h 14m
Waning Crescent, 14% of the Moon is Illuminated
Oct 5
Waning Crescent
Oct 8
New
Oct 16
First Quarter
Oct 24
Full
Oct 31
Last Quarter

Hourly Weather History & Observations

Time (AKDT) Temp. Windchill Dew Point Humidity Pressure Visibility Wind Dir Wind Speed Gust Speed Precip Events Conditions
12:53 AM 44.1 °F 42.5 °F 37.9 °F 79% 30.02 in 10.0 mi SSW 3.5 mph - N/A   Mostly Cloudy
1:53 AM 43.0 °F - 39.0 °F 86% 30.02 in 10.0 mi Calm Calm - N/A   Mostly Cloudy
2:53 AM 44.1 °F - 37.9 °F 79% 30.03 in 10.0 mi Calm Calm - N/A   Overcast
3:53 AM 46.0 °F 44.8 °F 39.9 °F 79% 30.02 in 10.0 mi SE 3.5 mph - N/A   Overcast
4:53 AM 45.0 °F - 39.9 °F 82% 30.03 in 10.0 mi Calm Calm - N/A   Overcast
5:42 AM 44.1 °F - 39.9 °F 85% 30.03 in 10.0 mi Calm Calm - N/A   Overcast
5:53 AM 44.1 °F - 39.0 °F 82% 30.03 in 10.0 mi Calm Calm - N/A   Overcast
6:14 AM 44.6 °F 43.1 °F 39.2 °F 81% 30.03 in 10.0 mi South 3.5 mph - N/A   Overcast
6:53 AM 44.1 °F 42.5 °F 39.9 °F 85% 30.03 in 10.0 mi South 3.5 mph - N/A   Mostly Cloudy
7:53 AM 44.6 °F 43.1 °F 39.2 °F 81% 30.04 in 10.0 mi SSE 3.5 mph - N/A   Mostly Cloudy
8:53 AM 46.9 °F - 42.1 °F 83% 30.05 in 10.0 mi SSE 3.5 mph - N/A   Overcast
9:53 AM 50.0 °F - 42.8 °F 76% 30.05 in 10.0 mi ESE 5.8 mph - N/A   Scattered Clouds
10:53 AM 52.0 °F - 41.0 °F 66% 30.04 in 10.0 mi ESE 9.2 mph - N/A   Partly Cloudy
11:53 AM 55.0 °F - 39.9 °F 57% 30.05 in 10.0 mi ESE 10.4 mph - N/A   Partly Cloudy
12:53 PM 55.0 °F - 39.9 °F 57% 30.05 in 10.0 mi ESE 11.5 mph - N/A   Scattered Clouds
1:53 PM 55.4 °F - 39.2 °F 54% 30.05 in 10.0 mi ESE 11.5 mph - N/A   Mostly Cloudy
2:53 PM 55.4 °F - 39.2 °F 54% 30.06 in 10.0 mi ESE 11.5 mph - N/A   Scattered Clouds
3:53 PM 55.4 °F - 41.0 °F 58% 30.05 in 10.0 mi ESE 11.5 mph - N/A   Mostly Cloudy
4:53 PM 53.6 °F - 41.0 °F 62% 30.06 in 10.0 mi ESE 9.2 mph - N/A   Overcast
5:53 PM 51.8 °F - 42.8 °F 71% 30.05 in 10.0 mi SE 8.1 mph - N/A Rain Light Rain
6:53 PM 48.2 °F - 44.6 °F 87% 30.06 in 10.0 mi SSE 6.9 mph - N/A Rain Light Rain
7:53 PM 48.2 °F - 46.4 °F 93% 30.06 in 10.0 mi SE 8.1 mph - N/A   Overcast
8:53 PM 48.2 °F - 46.4 °F 93% 30.04 in 10.0 mi SE 6.9 mph - N/A   Overcast
9:53 PM 48.0 °F - 45.0 °F 89% 30.05 in 10.0 mi SSE 5.8 mph - 0.01 in Rain Light Rain
10:53 PM 48.0 °F - 46.0 °F 93% 30.05 in 3.0 mi SSE 10.4 mph - 0.07 in Rain Rain
11:53 PM 46.9 °F - 45.0 °F 93% 30.06 in 3.0 mi SE 10.4 mph - 0.08 in Rain Light Rain